SCP
-0 -0 -0 -0 0 -0 0 -0 -0 -0 -0 -0 0 -0 -0 -0 -0 0 0 0 0 0 0 0 0 0 0 0 0 0 0 0 2 2 1 0 0 0 0 0 0 0 0 0
-0 -0 -0 -0 -0 0 0 0 -0 0 -0 -0 -0 -0 0 -0 -0 -0 0 0 0 0 0 0 0 0 0 0 0 0 0 0 0 1 0 0 0 0 0 0 0 0 0 0
-0 0 0 -0 -0 -0 -0 -0 -0 -0 -0 -0 0 -0 -0 -0 -0 -0 -0 0 0 0 0 0 0 0 0 0 0 0 0 0 0 0 1 0 0 0 0 0 0 0 0 0
0 0 0 0 0 0 0 -0 -0 -0 -0 -0 -0 0 -0 0 0 0 -0 -0 -0 0 0 0 0 0 0 0 0 0 0 0 0 0 0 0 0 0 0 0 0 0 0 0
0 0 0 0 0 0 0 0 0 -0 -0 -0 -0 0 -0 -0 -0 0 0 0 0 0 0 0 0 0 0 0 0 0 0 0 0 0 0 0 0 0 0 0 0 0 0 0
0 0 0 0 0 0 0 0 0 0 -0 -0 -0 -0 -0 -0 -0 -0 -0 -0 -0 -0 0 0 0 0 0 0 0 0 0 0 0 0 0 0 0 0 0 0 0 1 0 1
0 0 0 0 0 0 0 0 0 0 -0 -0 -0 -0 -0 -0 -0 -0 -0 -0 -0 -0 -0 -0 0 0 0 0 0 0 0 0 0 0 0 0 0 0 0 0 0 0 0 0
0 0 0 0 0 0 0 0 -0 -0 -0 -0 -0 -0 -0 -0 -0 -0 -0 -0 -0 -0 0 -0 -0 -0 0 0 0 0 0 0 0 0 0 0 0 0 0 0 0 0 0 0
0 0 0 0 0 0 0 0 0 -0 -0 -0 -0 -0 -0 -0 -0 -0 -0 -0 -0 -0 0 -0 -0 -0 -0 -0 0 0 0 0 0 0 0 0 0 0 0 0 0 0 0 0
0 0 0 0 0 0 0 0 0 -0 -0 -0 0 -0 -0 -0 -0 -0 -0 -0 -0 -0 -0 -0 -0 -0 -0 -0 -0 0 0 0 0 0 0 0 0 0 0 0 0 0 0 0
0 0 0 0 0 0 0 0 -0 -0 -0 0 0 0 0 -0 -0 -0 -0 -0 -0 0 0 -0 -0 0 -0 -0 -0 0 0 0 0 0 0 0 0 0 0 0 0 0 0 0
0 -0 0 0 0 0 0 -0 -0 -0 -0 -0 0 0 0 -0 -0 -0 -0 -0 -0 -0 -0 -0 0 0 0 0 -0 -0 0 0 -0 0 0 0 0 0 0 0 0 0 0 0
0 0 0 0 0 0 0 -0 -0 -0 -0 -0 0 0 0 0 0 0 -0 -0 -0 -0 -0 -0 0 0 0 0 0 0 0 0 -0 -0 -0 0 -0 0 0 0 0 0 0 0
-0 0 0 0 0 0 -0 0 -0 -0 -0 -0 -0 0 0 -0 0 0 0 -0 -0 -0 -0 0 0 0 0 -0 0 0 0 0 0 -0 -0 -0 -0 -0 -0 0 0 0 0 0
0 -0 0 0 0 0 -0 -0 -0 -0 -0 -0 -0 -0 -0 0 0 0 0 0 0 -0 -0 -0 -0 0 0 0 0 0 0 0 0 0 0 0 0 -0 -0 -0 -0 -0 -0 -0
-0 -0 -0 -0 -0 0 0 0 -0 -0 -0 -0 -0 -0 -0 -0 -0 -0 -0 -0 -0 0 0 -0 -0 0 0 0 0 0 0 0 0 0 0 0 0 0 0 -0 -0 -0 -0 -0
0 -0 -0 -0 -0 -0 0 0 -0 0 -0 -0 -0 0 0 0 -0 -0 -0 -0 -0 -0 0 0 0 0 0 0 0 0 0 0 0 0 0 0 0 0 0 0 0 0 -0 -0
0 0 -0 -0 0 0 -0 0 0 -0 -0 -0 0 0 0 0 0 -0 -0 -0 -0 0 -0 0 0 0 0 0 0 0 0 0 0 0 0 0 0 0 0 0 0 0 0 0
0 0 0 0 -0 -0 0 0 0 0 0 0 -0 -0 0 0 -0 -0 -0 -0 0 0 0 0 0 -0 0 0 0 0 0 0 0 0 0 0 0 0 0 0 0 0 0 0
0 0 0 0 0 0 0 0 0 0 0 0 0 0 -0 -0 0 0 0 0 0 0 0 0 0 0 0 0 0 0 0 0 0 0 0 0 0 0 0 0 0 0 0 0
0 0 0 0 0 0 0 0 0 0 0 0 0 0 0 0 0 -0 0 0 0 0 0 0 0 0 0 0 0 0 -0 0 0 0 0 0 0 0 0 0 0 0 0 0
0 0 0 0 0 0 0 0 0 0 0 0 0 0 0 -0 -0 -0 0 0 -0 -0 -0 -0 0 0 -0 -0 0 0 0 0 0 0 0 0 0 0 0 0 0 0 0 0
0 0 0 0 0 0 0 0 0 0 0 0 0 0 0 0 0 -0 -0 -0 0 -0 0 0 0 0 0 0 0 0 0 0 0 0 0 0 0 0 0 0 0 0 0 0
0 0 0 0 0 0 0 0 0 0 0 0 0 0 0 0 0 0 0 0 0 0 0 0 0 0 0 0 0 0 0 0 0 0 0 0 0 0 0 0 0 0 0 0
0 0 0 0 0 0 0 0 0 0 0 0 0 0 0 0 0 0 0 0 0 0 0 0 0 0 0 0 0 0 0 0 0 0 0 0 0 0 0 0 0 0 0 0
0 0 0 0 0 0 0 0 0 0 0 0 0 0 0 0 0 0 0 0 0 0 0 0 0 0 0 0 0 0 0 0 0 0 0 0 0 0 0 0 0 0 0 0
0 0 0 0 0 0 0 0 0 0 0 0 0 0 0 0 0 0 0 0 0 0 0 0 -0 -0 -0 0 0 0 0 0 0 0 0 0 0 0 0 0 0 0 0 0
Wind_Speed_500mb
30 26 27 24 30 42 38 23 18 24 31 37 34 32 52 62 78 88 89 97 102 100 112 116 102 101 89 98 60 30 45 53 75 81 99 108 113 110 93 88 90 93 96 90
17 30 22 43 34 41 36 28 23 27 24 33 48 40 56 64 69 74 83 92 100 98 100 114 100 110 109 93 94 65 2 29 30 76 85 110 95 111 102 90 90 87 95 91
13 9 5 37 31 33 26 27 23 25 18 34 34 37 44 58 63 66 75 79 93 102 98 112 102 108 103 97 100 94 60 20 7 51 71 80 70 85 100 101 89 96 95 98
14 13 21 13 25 16 20 28 26 19 16 25 39 52 41 56 53 60 72 69 79 94 98 97 104 98 98 103 98 105 95 66 19 24 43 67 82 70 91 101 96 95 97 96
11 8 10 29 33 32 12 24 35 29 26 29 42 45 42 49 57 54 57 66 64 73 81 91 91 92 99 105 102 103 113 96 67 36 11 23 58 59 60 94 98 92 99 94
12 10 10 18 32 44 10 2 49 49 39 40 46 23 24 55 55 60 57 64 63 68 69 75 87 81 109 111 105 112 98 102 88 61 39 21 30 56 66 63 82 89 87 93
15 10 5 24 36 38 27 21 52 54 51 48 30 41 58 58 54 52 56 63 63 59 65 63 69 88 91 110 106 93 85 80 94 87 65 43 19 39 54 66 85 86 89 87
13 11 5 33 22 19 22 37 41 51 53 51 53 56 60 65 65 56 54 56 59 61 67 65 68 67 73 84 80 82 88 83 87 89 90 69 34 33 19 39 62 72 77 81
6 10 13 22 16 28 35 40 43 48 49 53 56 58 62 62 65 64 61 54 54 53 63 62 57 60 62 66 69 74 70 87 79 77 79 89 77 65 44 25 17 34 49 66
18 7 13 21 21 32 38 42 48 50 53 54 59 62 60 59 61 64 63 57 51 59 57 57 55 55 54 52 63 70 70 72 68 69 84 67 82 78 79 67 47 26 13 20
22 16 25 23 33 37 40 45 47 51 54 56 60 60 61 62 63 62 60 59 57 52 50 49 53 52 52 50 49 50 51 43 62 61 51 70 57 68 73 77 68 61 35 17
18 34 28 33 36 39 45 50 53 55 58 59 58 62 63 62 64 63 63 58 54 50 47 51 48 49 45 45 44 43 47 47 45 53 55 49 52 54 53 56 61 71 60 52
34 29 28 33 40 43 51 53 56 56 55 60 60 62 60 65 61 63 58 55 53 53 54 50 46 40 39 40 42 43 44 38 36 28 41 43 36 45 48 43 51 54 59 66
41 25 31 31 43 49 53 57 57 56 54 55 61 61 62 62 63 56 53 50 49 51 50 48 44 41 37 42 42 39 40 40 34 40 23 26 26 21 26 36 32 42 38 49
34 27 26 37 46 53 57 60 59 57 57 57 59 63 62 64 60 53 50 47 46 46 46 50 51 46 43 42 36 37 36 38 37 37 34 23 23 24 15 18 24 28 29 32
34 30 37 45 53 57 57 59 58 58 57 55 57 58 62 54 47 48 48 48 52 53 50 48 48 46 46 43 41 39 38 35 31 32 36 31 25 25 20 26 12 11 15 19
32 42 48 50 50 54 57 56 59 59 62 59 55 53 47 41 50 47 45 47 51 53 54 50 46 42 37 35 39 41 39 36 33 31 29 30 23 24 21 26 19 11 12 9
34 41 41 46 52 53 54 56 59 63 60 60 56 49 39 44 41 47 60 55 51 50 42 41 41 47 50 39 39 39 36 34 33 34 35 34 31 27 27 28 23 14 12 12
36 40 43 45 48 52 56 60 61 60 61 56 53 51 44 42 50 44 46 45 48 49 49 44 43 40 41 40 39 40 35 34 35 33 33 35 36 32 30 30 30 23 21 22
35 38 41 46 47 52 57 58 59 56 53 51 51 47 57 60 53 52 42 37 36 41 36 38 39 34 33 32 32 36 33 33 36 36 37 36 39 41 43 35 33 37 33 27
36 40 43 48 52 54 54 50 49 47 44 45 52 60 58 57 51 55 47 41 34 35 41 45 39 41 40 32 39 31 34 36 33 33 35 35 37 38 41 45 46 42 39 45
36 39 44 51 52 49 43 41 38 41 45 48 53 51 53 51 49 44 40 40 53 57 57 53 41 44 52 50 39 34 37 40 37 36 35 36 37 40 46 48 49 48 50 55
35 38 46 47 43 40 36 35 37 39 41 42 44 43 44 45 44 49 52 52 52 56 49 41 42 42 40 35 32 30 31 33 33 33 35 38 40 42 44 44 45 46 44 44
33 40 40 33 31 33 34 35 36 34 34 34 36 38 41 46 43 43 43 46 49 52 45 44 45 34 30 30 19 25 27 25 25 27 26 29 31 33 36 34 37 39 39 37
33 34 26 26 30 30 31 32 32 30 32 32 31 35 36 36 38 43 44 47 47 46 46 48 49 42 38 34 31 29 23 12 15 18 19 22 25 26 24 25 25 26 30 30
31 21 20 23 23 24 25 28 26 27 29 29 30 33 35 35 37 40 41 44 46 49 49 50 57 53 51 51 47 45 41 39 36 32 30 30 31 32 33 31 27 24 24 24
20 18 17 17 17 19 22 19 22 24 23 25 27 27 33 35 36 38 41 41 42 48 49 51 53 58 52 52 51 50 48 47 45 43 40 37 35 35 35 34 34 33 31 30
Wind_Direction_500mb
311 304 18 45 57 60 54 51 38 33 34 4 3 16 6 360 3 2 357 0 357 352 356 348 354 352 3 12 10 16 241 238 216 220 224 220 218 207 203 207 207 208 207 209
39 85 67 38 32 64 56 38 45 36 35 9 1 11 8 3 1 359 355 356 357 352 357 357 351 1 6 7 19 19 4 220 216 224 213 210 212 211 206 204 206 208 210 207
3 99 272 35 19 39 37 55 50 34 16 8 357 6 9 355 358 0 352 354 355 353 348 358 351 9 9 9 17 25 31 35 303 186 229 211 207 213 207 205 204 207 211 210
335 130 52 23 33 4 47 47 43 43 20 24 4 345 7 355 349 352 355 348 355 353 352 351 354 4 9 15 18 22 27 36 43 168 234 232 209 205 212 206 205 207 209 213
349 358 163 30 16 354 62 26 14 15 10 12 357 343 350 350 350 344 350 346 350 349 351 353 356 358 13 15 17 23 27 30 33 34 155 187 198 208 211 212 211 213 213 210
336 338 33 2 5 352 305 29 359 356 355 358 349 342 334 336 343 339 339 346 344 351 351 352 3 357 5 9 17 16 21 27 31 36 38 82 169 193 205 218 219 216 213 212
347 12 113 4 9 7 27 335 346 353 352 352 343 329 324 329 331 333 334 337 341 344 349 352 352 3 1 7 10 8 16 29 29 35 45 49 89 192 217 211 218 219 218 214
334 356 4 354 358 28 357 353 341 347 347 343 337 336 335 334 333 334 331 333 336 339 343 349 359 354 7 1 1 7 17 14 27 23 35 45 48 70 133 183 199 210 220 225
297 296 310 348 6 0 350 350 343 340 337 336 335 334 332 333 334 335 335 334 329 334 335 341 349 356 358 0 3 6 7 20 15 19 27 31 48 50 68 78 137 171 189 199
301 306 321 346 356 348 345 338 338 337 336 334 332 332 333 333 334 333 334 333 341 334 332 333 339 346 349 353 2 4 11 6 10 10 28 24 35 40 49 55 56 74 110 173
285 322 325 335 344 337 332 332 335 336 335 332 331 333 333 336 334 332 332 332 331 329 328 327 329 333 339 346 354 360 3 7 2 22 4 24 26 31 38 40 38 54 49 73
289 328 323 322 324 324 329 332 333 333 330 330 331 334 337 337 333 334 331 329 330 331 330 331 324 321 328 335 341 350 351 7 7 7 18 15 24 27 31 36 33 40 51 57
290 291 295 303 314 324 327 327 331 332 329 330 332 334 335 331 332 331 330 330 328 329 327 324 322 320 320 324 340 337 339 345 359 356 7 16 358 27 31 27 31 38 32 37
302 291 295 315 316 324 325 330 330 329 330 331 330 332 331 331 331 329 328 328 325 324 325 326 329 331 332 324 321 327 326 325 347 340 354 353 356 356 358 23 25 32 35 41
316 306 307 314 321 321 323 328 328 330 330 333 333 332 331 331 329 329 328 328 328 325 325 326 327 328 329 328 322 318 318 322 327 339 337 342 359 353 335 351 13 35 26 31
321 333 326 329 323 328 325 324 328 328 331 335 334 330 327 327 327 326 327 328 329 325 322 321 324 323 324 325 327 326 318 314 316 323 315 327 334 336 3 6 345 342 5 39
337 336 329 323 319 322 325 324 325 329 331 332 330 330 328 331 325 325 326 326 325 321 320 320 319 319 318 321 320 320 317 313 303 307 309 314 318 313 327 334 341 328 296 276
321 317 322 322 321 322 323 327 329 328 326 327 328 331 334 328 328 327 320 319 321 324 325 324 324 318 320 320 313 311 312 313 310 306 304 306 305 307 302 290 297 310 323 308
320 321 321 322 325 328 327 326 326 326 327 328 331 330 330 327 328 325 327 325 326 322 325 325 321 326 320 314 313 310 308 306 302 300 300 306 305 308 306 295 291 306 311 305
326 325 327 325 326 325 325 325 325 327 329 329 329 328 327 330 333 329 336 322 323 319 332 326 330 330 320 311 297 300 301 300 303 306 308 307 302 299 290 297 301 286 287 297
329 327 328 328 327 328 327 327 330 332 332 332 329 329 331 336 339 337 333 331 331 332 329 320 315 321 312 312 306 310 302 295 295 299 304 309 309 305 301 300 293 284 287 280
326 327 328 329 328 328 331 333 334 335 334 331 333 338 340 338 337 338 340 340 334 331 325 326 324 304 296 292 300 304 297 296 292 293 290 291 293 296 296 298 297 296 290 279
326 328 329 330 331 332 335 338 339 339 338 342 342 344 344 343 345 345 344 340 337 334 343 345 331 333 338 316 295 297 294 297 291 290 289 292 299 304 306 307 306 303 297 286
328 329 331 333 335 336 341 343 345 346 348 349 350 351 350 349 351 350 350 346 351 356 2 353 344 344 10 17 336 303 293 296 300 302 304 304 306 310 310 306 304 305 305 297
328 331 335 341 340 340 341 346 347 352 354 357 0 0 1 1 1 358 0 5 3 11 11 7 14 19 15 9 6 17 22 3 332 328 324 323 327 321 311 306 307 308 303 301
330 331 338 341 340 342 344 345 355 359 1 6 10 10 9 13 12 11 13 14 14 17 20 20 24 30 30 30 29 26 19 11 4 355 341 333 326 320 317 322 321 318 309 298
324 331 344 339 344 346 342 3 11 7 14 17 15 16 14 16 16 17 15 16 20 19 22 20 19 20 25 26 26 25 23 21 19 16 13 7 359 350 342 330 318 310 304 295
Wind_Speed_850mb
30 26 27 24 30 42 38 23 18 24 31 37 34 32 52 62 78 88 89 97 102 100 112 116 102 101 89 98 60 30 45 53 75 81 99 108 113 110 93 88 90 93 96 90
17 30 22 43 34 41 36 28 23 27 24 33 48 40 56 64 69 74 83 92 100 98 100 114 100 110 109 93 94 65 2 29 30 76 85 110 95 111 102 90 90 87 95 91
13 9 5 37 31 33 26 27 23 25 18 34 34 37 44 58 63 66 75 79 93 102 98 112 102 108 103 97 100 94 60 20 7 51 71 80 70 85 100 101 89 96 95 98
14 13 21 13 25 16 20 28 26 19 16 25 39 52 41 56 53 60 72 69 79 94 98 97 104 98 98 103 98 105 95 66 19 24 43 67 82 70 91 101 96 95 97 96
11 8 10 29 33 32 12 24 35 29 26 29 42 45 42 49 57 54 57 66 64 73 81 91 91 92 99 105 102 103 113 96 67 36 11 23 58 59 60 94 98 92 99 94
12 10 10 18 32 44 10 2 49 49 39 40 46 23 24 55 55 60 57 64 63 68 69 75 87 81 109 111 105 112 98 102 88 61 39 21 30 56 66 63 82 89 87 93
15 10 5 24 36 38 27 21 52 54 51 48 30 41 58 58 54 52 56 63 63 59 65 63 69 88 91 110 106 93 85 80 94 87 65 43 19 39 54 66 85 86 89 87
13 11 5 33 22 19 22 37 41 51 53 51 53 56 60 65 65 56 54 56 59 61 67 65 68 67 73 84 80 82 88 83 87 89 90 69 34 33 19 39 62 72 77 81
6 10 13 22 16 28 35 40 43 48 49 53 56 58 62 62 65 64 61 54 54 53 63 62 57 60 62 66 69 74 70 87 79 77 79 89 77 65 44 25 17 34 49 66
18 7 13 21 21 32 38 42 48 50 53 54 59 62 60 59 61 64 63 57 51 59 57 57 55 55 54 52 63 70 70 72 68 69 84 67 82 78 79 67 47 26 13 20
22 16 25 23 33 37 40 45 47 51 54 56 60 60 61 62 63 62 60 59 57 52 50 49 53 52 52 50 49 50 51 43 62 61 51 70 57 68 73 77 68 61 35 17
18 34 28 33 36 39 45 50 53 55 58 59 58 62 63 62 64 63 63 58 54 50 47 51 48 49 45 45 44 43 47 47 45 53 55 49 52 54 53 56 61 71 60 52
34 29 28 33 40 43 51 53 56 56 55 60 60 62 60 65 61 63 58 55 53 53 54 50 46 40 39 40 42 43 44 38 36 28 41 43 36 45 48 43 51 54 59 66
41 25 31 31 43 49 53 57 57 56 54 55 61 61 62 62 63 56 53 50 49 51 50 48 44 41 37 42 42 39 40 40 34 40 23 26 26 21 26 36 32 42 38 49
34 27 26 37 46 53 57 60 59 57 57 57 59 63 62 64 60 53 50 47 46 46 46 50 51 46 43 42 36 37 36 38 37 37 34 23 23 24 15 18 24 28 29 32
34 30 37 45 53 57 57 59 58 58 57 55 57 58 62 54 47 48 48 48 52 53 50 48 48 46 46 43 41 39 38 35 31 32 36 31 25 25 20 26 12 11 15 19
32 42 48 50 50 54 57 56 59 59 62 59 55 53 47 41 50 47 45 47 51 53 54 50 46 42 37 35 39 41 39 36 33 31 29 30 23 24 21 26 19 11 12 9
34 41 41 46 52 53 54 56 59 63 60 60 56 49 39 44 41 47 60 55 51 50 42 41 41 47 50 39 39 39 36 34 33 34 35 34 31 27 27 28 23 14 12 12
36 40 43 45 48 52 56 60 61 60 61 56 53 51 44 42 50 44 46 45 48 49 49 44 43 40 41 40 39 40 35 34 35 33 33 35 36 32 30 30 30 23 21 22
35 38 41 46 47 52 57 58 59 56 53 51 51 47 57 60 53 52 42 37 36 41 36 38 39 34 33 32 32 36 33 33 36 36 37 36 39 41 43 35 33 37 33 27
36 40 43 48 52 54 54 50 49 47 44 45 52 60 58 57 51 55 47 41 34 35 41 45 39 41 40 32 39 31 34 36 33 33 35 35 37 38 41 45 46 42 39 45
36 39 44 51 52 49 43 41 38 41 45 48 53 51 53 51 49 44 40 40 53 57 57 53 41 44 52 50 39 34 37 40 37 36 35 36 37 40 46 48 49 48 50 55
35 38 46 47 43 40 36 35 37 39 41 42 44 43 44 45 44 49 52 52 52 56 49 41 42 42 40 35 32 30 31 33 33 33 35 38 40 42 44 44 45 46 44 44
33 40 40 33 31 33 34 35 36 34 34 34 36 38 41 46 43 43 43 46 49 52 45 44 45 34 30 30 19 25 27 25 25 27 26 29 31 33 36 34 37 39 39 37
33 34 26 26 30 30 31 32 32 30 32 32 31 35 36 36 38 43 44 47 47 46 46 48 49 42 38 34 31 29 23 12 15 18 19 22 25 26 24 25 25 26 30 30
31 21 20 23 23 24 25 28 26 27 29 29 30 33 35 35 37 40 41 44 46 49 49 50 57 53 51 51 47 45 41 39 36 32 30 30 31 32 33 31 27 24 24 24
20 18 17 17 17 19 22 19 22 24 23 25 27 27 33 35 36 38 41 41 42 48 49 51 53 58 52 52 51 50 48 47 45 43 40 37 35 35 35 34 34 33 31 30
Wind_Direction_850mb
311 304 18 45 57 60 54 51 38 33 34 4 3 16 6 360 3 2 357 0 357 352 356 348 354 352 3 12 10 16 241 238 216 220 224 220 218 207 203 207 207 208 207 209
39 85 67 38 32 64 56 38 45 36 35 9 1 11 8 3 1 359 355 356 357 352 357 357 351 1 6 7 19 19 4 220 216 224 213 210 212 211 206 204 206 208 210 207
3 99 272 35 19 39 37 55 50 34 16 8 357 6 9 355 358 0 352 354 355 353 348 358 351 9 9 9 17 25 31 35 303 186 229 211 207 213 207 205 204 207 211 210
335 130 52 23 33 4 47 47 43 43 20 24 4 345 7 355 349 352 355 348 355 353 352 351 354 4 9 15 18 22 27 36 43 168 234 232 209 205 212 206 205 207 209 213
349 358 163 30 16 354 62 26 14 15 10 12 357 343 350 350 350 344 350 346 350 349 351 353 356 358 13 15 17 23 27 30 33 34 155 187 198 208 211 212 211 213 213 210
336 338 33 2 5 352 305 29 359 356 355 358 349 342 334 336 343 339 339 346 344 351 351 352 3 357 5 9 17 16 21 27 31 36 38 82 169 193 205 218 219 216 213 212
347 12 113 4 9 7 27 335 346 353 352 352 343 329 324 329 331 333 334 337 341 344 349 352 352 3 1 7 10 8 16 29 29 35 45 49 89 192 217 211 218 219 218 214
334 356 4 354 358 28 357 353 341 347 347 343 337 336 335 334 333 334 331 333 336 339 343 349 359 354 7 1 1 7 17 14 27 23 35 45 48 70 133 183 199 210 220 225
297 296 310 348 6 0 350 350 343 340 337 336 335 334 332 333 334 335 335 334 329 334 335 341 349 356 358 0 3 6 7 20 15 19 27 31 48 50 68 78 137 171 189 199
301 306 321 346 356 348 345 338 338 337 336 334 332 332 333 333 334 333 334 333 341 334 332 333 339 346 349 353 2 4 11 6 10 10 28 24 35 40 49 55 56 74 110 173
285 322 325 335 344 337 332 332 335 336 335 332 331 333 333 336 334 332 332 332 331 329 328 327 329 333 339 346 354 360 3 7 2 22 4 24 26 31 38 40 38 54 49 73
289 328 323 322 324 324 329 332 333 333 330 330 331 334 337 337 333 334 331 329 330 331 330 331 324 321 328 335 341 350 351 7 7 7 18 15 24 27 31 36 33 40 51 57
290 291 295 303 314 324 327 327 331 332 329 330 332 334 335 331 332 331 330 330 328 329 327 324 322 320 320 324 340 337 339 345 359 356 7 16 358 27 31 27 31 38 32 37
302 291 295 315 316 324 325 330 330 329 330 331 330 332 331 331 331 329 328 328 325 324 325 326 329 331 332 324 321 327 326 325 347 340 354 353 356 356 358 23 25 32 35 41
316 306 307 314 321 321 323 328 328 330 330 333 333 332 331 331 329 329 328 328 328 325 325 326 327 328 329 328 322 318 318 322 327 339 337 342 359 353 335 351 13 35 26 31
321 333 326 329 323 328 325 324 328 328 331 335 334 330 327 327 327 326 327 328 329 325 322 321 324 323 324 325 327 326 318 314 316 323 315 327 334 336 3 6 345 342 5 39
337 336 329 323 319 322 325 324 325 329 331 332 330 330 328 331 325 325 326 326 325 321 320 320 319 319 318 321 320 320 317 313 303 307 309 314 318 313 327 334 341 328 296 276
321 317 322 322 321 322 323 327 329 328 326 327 328 331 334 328 328 327 320 319 321 324 325 324 324 318 320 320 313 311 312 313 310 306 304 306 305 307 302 290 297 310 323 308
320 321 321 322 325 328 327 326 326 326 327 328 331 330 330 327 328 325 327 325 326 322 325 325 321 326 320 314 313 310 308 306 302 300 300 306 305 308 306 295 291 306 311 305
326 325 327 325 326 325 325 325 325 327 329 329 329 328 327 330 333 329 336 322 323 319 332 326 330 330 320 311 297 300 301 300 303 306 308 307 302 299 290 297 301 286 287 297
329 327 328 328 327 328 327 327 330 332 332 332 329 329 331 336 339 337 333 331 331 332 329 320 315 321 312 312 306 310 302 295 295 299 304 309 309 305 301 300 293 284 287 280
326 327 328 329 328 328 331 333 334 335 334 331 333 338 340 338 337 338 340 340 334 331 325 326 324 304 296 292 300 304 297 296 292 293 290 291 293 296 296 298 297 296 290 279
326 328 329 330 331 332 335 338 339 339 338 342 342 344 344 343 345 345 344 340 337 334 343 345 331 333 338 316 295 297 294 297 291 290 289 292 299 304 306 307 306 303 297 286
328 329 331 333 335 336 341 343 345 346 348 349 350 351 350 349 351 350 350 346 351 356 2 353 344 344 10 17 336 303 293 296 300 302 304 304 306 310 310 306 304 305 305 297
328 331 335 341 340 340 341 346 347 352 354 357 0 0 1 1 1 358 0 5 3 11 11 7 14 19 15 9 6 17 22 3 332 328 324 323 327 321 311 306 307 308 303 301
330 331 338 341 340 342 344 345 355 359 1 6 10 10 9 13 12 11 13 14 14 17 20 20 24 30 30 30 29 26 19 11 4 355 341 333 326 320 317 322 321 318 309 298
324 331 344 339 344 346 342 3 11 7 14 17 15 16 14 16 16 17 15 16 20 19 22 20 19 20 25 26 26 25 23 21 19 16 13 7 359 350 342 330 318 310 304 295